Thomson Dream — 9HA2381 — position and weather

sailwx.info

Track history (hours):
 
Tides and Currents Weather Stations Pressure Air Temp Water Temp Dewpoint Dewpoint Depression Visibility Wind Speed Wind Dir Waves Ship Positions

Thomson Dream

Last reported at 2014-Oct-24 23:33 UTC. Time now 2014-Oct-25 04:18 UTC.
Position N 38°57' E 002°01'.

Length 243 m; draft 7.6 m.

Type: Ship. MMSI: 248480975.

Date/timePositionNaut miles runAvg speedWind from/ knotsBaromVisibWave heightAir tempDewpointWater temp
2014-Oct-24 23:33N 38°57' E 002°01'1616.3
2014-Oct-24 22:33N 38°44' E 001°48'1616.2
2014-Oct-24 21:33N 38°33' E 001°33'1616.2
2014-Oct-24 20:33N 38°24' E 001°15'1616.2
2014-Oct-24 19:33N 38°16' E 000°58'1616.4
2014-Oct-24 18:33N 38°07' E 000°41'1616.1
2014-Oct-24 17:34N 37°58' E 000°24'1716.4
2014-Oct-24 16:33N 37°49' E 000°06'1615.8
2014-Oct-24 15:33N 37°39' W 000°10'1514.8
2014-Oct-24 14:33N 37°32' W 000°27'1414.4
2014-Oct-24 13:33N 37°31' W 000°44'13 1.6
2014-Oct-24 05:31N 37°36' W 000°59'8 7.1
2014-Oct-24 04:25N 37°29' W 001°04'2411.4
2014-Oct-24 02:19N 37°09' W 001°21'199 7.3
2014-Oct-22 23:04N 36°00' W 005°14'917.8
2014-Oct-22 22:34N 35°59' W 005°24'  
2014-Oct-20 16:28N 35°58' W 005°34'1213.2
2014-Oct-20 15:34N 36°06' W 005°23'3 0.3
2014-Oct-20 05:33N 36°09' W 005°22'6 5.6
2014-Oct-20 04:33N 36°05' W 005°17'22315.9
2014-Oct-19 14:33N 36°55' W 000°46'1010.3
2014-Oct-19 13:33N 37°01' W 000°36'1110.5
2014-Oct-19 12:33N 37°09' W 000°27'1110.6
2014-Oct-19 11:33N 37°17' W 000°18'1110.6
2014-Oct-19 10:33N 37°26' W 000°10'1111.0
2014-Oct-19 09:33N 37°34' W 000°01'1111.2
2014-Oct-19 08:32N 37°42' E 000°09'1211.3
2014-Oct-19 07:27N 37°51' E 000°20'1415.5
2014-Oct-19 06:31N 38°00' E 000°34'1717.8
2014-Oct-19 05:34N 38°10' E 000°52'1716.4
2014-Oct-19 04:33N 38°19' E 001°09'1616.3
2014-Oct-19 03:34N 38°29' E 001°26'1616.2
2014-Oct-19 02:33N 38°39' E 001°42'5616.6
2014-Oct-18 23:13N 39°21' E 002°29'14 2.1
2014-Oct-18 16:33N 39°33' E 002°38'0 0.0
2014-Oct-18 15:33N 39°33' E 002°38'0 0.0
2014-Oct-18 14:33N 39°33' E 002°38'0 0.0
2014-Oct-18 13:33N 39°33' E 002°38'0 0.0
2014-Oct-18 12:33N 39°33' E 002°38'0 0.0
2014-Oct-18 11:33N 39°33' E 002°38'0 0.0
2014-Oct-18 10:33N 39°33' E 002°38'0 0.0
2014-Oct-18 09:21N 39°33' E 002°38'0 0.0
2014-Oct-18 08:18N 39°33' E 002°38'0 0.0
2014-Oct-18 07:33N 39°33' E 002°38'0 0.0
2014-Oct-18 06:33N 39°33' E 002°38'0 0.0
2014-Oct-18 05:33N 39°33' E 002°38'0 0.0
2014-Oct-18 04:33N 39°33' E 002°38'0 0.2
2014-Oct-18 03:33N 39°33' E 002°38'8 7.7
2014-Oct-18 02:33N 39°26' E 002°34'1312.5
2014-Oct-18 01:33N 39°31' E 002°19'9 9.3
2014-Oct-18 00:33N 39°40' E 002°16'1010.1
2014-Oct-17 23:33N 39°50' E 002°20'1615.8
2014-Oct-17 22:33N 40°05' E 002°25'1616.1
2014-Oct-17 21:33N 40°21' E 002°30'1616.0
2014-Oct-17 20:33N 40°36' E 002°34'1615.8
2014-Oct-17 19:33N 40°52' E 002°38'1615.9
2014-Oct-17 18:33N 41°06' E 002°47'1616.0
2014-Oct-17 17:33N 41°21' E 002°55'1716.6
2014-Oct-17 16:33N 41°37' E 003°02'1414.1
2014-Oct-17 15:32N 41°51' E 003°07'0 0.1
2014-Oct-17 14:28N 41°51' E 003°07'0 0.0
2014-Oct-17 13:04N 41°51' E 003°07'0 0.0
2014-Oct-17 06:15N 41°50' E 003°07'2011.5
2014-Oct-17 04:31N 41°49' E 003°34'1515.6
2014-Oct-17 03:33N 41°49' E 003°54'1515.0
2014-Oct-17 02:33N 41°50' E 004°14'  
Track history (hours):
 
Tides and Currents Weather Stations Pressure Air Temp Water Temp Dewpoint Dewpoint Depression Visibility Wind Speed Wind Dir Waves Ship Positions

Thomson Dream

Last reported at 2014-Oct-24 23:33 UTC. Time now 2014-Oct-25 04:18 UTC.
Position N 38°57' E 002°01'.

Length 243 m; draft 7.6 m.

Type: Ship. MMSI: 248480975.

Date/timePositionNaut miles runAvg speedWind from/ knotsBaromVisibWave heightAir tempDewpointWater temp
2014-Oct-24 23:33N 38°57' E 002°01'1616.3
2014-Oct-24 22:33N 38°44' E 001°48'1616.2
2014-Oct-24 21:33N 38°33' E 001°33'1616.2
2014-Oct-24 20:33N 38°24' E 001°15'1616.2
2014-Oct-24 19:33N 38°16' E 000°58'1616.4
2014-Oct-24 18:33N 38°07' E 000°41'1616.1
2014-Oct-24 17:34N 37°58' E 000°24'1716.4
2014-Oct-24 16:33N 37°49' E 000°06'1615.8
2014-Oct-24 15:33N 37°39' W 000°10'1514.8
2014-Oct-24 14:33N 37°32' W 000°27'1414.4
2014-Oct-24 13:33N 37°31' W 000°44'13 1.6
2014-Oct-24 05:31N 37°36' W 000°59'8 7.1
2014-Oct-24 04:25N 37°29' W 001°04'2411.4
2014-Oct-24 02:19N 37°09' W 001°21'199 7.3
2014-Oct-22 23:04N 36°00' W 005°14'917.8
2014-Oct-22 22:34N 35°59' W 005°24'  
2014-Oct-20 16:28N 35°58' W 005°34'1213.2
2014-Oct-20 15:34N 36°06' W 005°23'3 0.3
2014-Oct-20 05:33N 36°09' W 005°22'6 5.6
2014-Oct-20 04:33N 36°05' W 005°17'22315.9
2014-Oct-19 14:33N 36°55' W 000°46'1010.3
2014-Oct-19 13:33N 37°01' W 000°36'1110.5
2014-Oct-19 12:33N 37°09' W 000°27'1110.6
2014-Oct-19 11:33N 37°17' W 000°18'1110.6
2014-Oct-19 10:33N 37°26' W 000°10'1111.0
2014-Oct-19 09:33N 37°34' W 000°01'1111.2
2014-Oct-19 08:32N 37°42' E 000°09'1211.3
2014-Oct-19 07:27N 37°51' E 000°20'1415.5
2014-Oct-19 06:31N 38°00' E 000°34'1717.8
2014-Oct-19 05:34N 38°10' E 000°52'1716.4
2014-Oct-19 04:33N 38°19' E 001°09'1616.3
2014-Oct-19 03:34N 38°29' E 001°26'1616.2
2014-Oct-19 02:33N 38°39' E 001°42'5616.6
2014-Oct-18 23:13N 39°21' E 002°29'14 2.1
2014-Oct-18 16:33N 39°33' E 002°38'0 0.0
2014-Oct-18 15:33N 39°33' E 002°38'0 0.0
2014-Oct-18 14:33N 39°33' E 002°38'0 0.0
2014-Oct-18 13:33N 39°33' E 002°38'0 0.0
2014-Oct-18 12:33N 39°33' E 002°38'0 0.0
2014-Oct-18 11:33N 39°33' E 002°38'0 0.0
2014-Oct-18 10:33N 39°33' E 002°38'0 0.0
2014-Oct-18 09:21N 39°33' E 002°38'0 0.0
2014-Oct-18 08:18N 39°33' E 002°38'0 0.0
2014-Oct-18 07:33N 39°33' E 002°38'0 0.0
2014-Oct-18 06:33N 39°33' E 002°38'0 0.0
2014-Oct-18 05:33N 39°33' E 002°38'0 0.0
2014-Oct-18 04:33N 39°33' E 002°38'0 0.2
2014-Oct-18 03:33N 39°33' E 002°38'8 7.7
2014-Oct-18 02:33N 39°26' E 002°34'1312.5
2014-Oct-18 01:33N 39°31' E 002°19'9 9.3
2014-Oct-18 00:33N 39°40' E 002°16'1010.1
2014-Oct-17 23:33N 39°50' E 002°20'1615.8
2014-Oct-17 22:33N 40°05' E 002°25'1616.1
2014-Oct-17 21:33N 40°21' E 002°30'1616.0
2014-Oct-17 20:33N 40°36' E 002°34'1615.8
2014-Oct-17 19:33N 40°52' E 002°38'1615.9
2014-Oct-17 18:33N 41°06' E 002°47'1616.0
2014-Oct-17 17:33N 41°21' E 002°55'1716.6
2014-Oct-17 16:33N 41°37' E 003°02'1414.1
2014-Oct-17 15:32N 41°51' E 003°07'0 0.1
2014-Oct-17 14:28N 41°51' E 003°07'0 0.0
2014-Oct-17 13:04N 41°51' E 003°07'0 0.0
2014-Oct-17 06:15N 41°50' E 003°07'2011.5
2014-Oct-17 04:31N 41°49' E 003°34'1515.6
2014-Oct-17 03:33N 41°49' E 003°54'1515.0
2014-Oct-17 02:33N 41°50' E 004°14'  

Dump ship's entire track history